Regional Weather Roundup
Issued by NWS

Home | Current Version | Previous Version | Graphics & Text | Print | Product List | Glossary On
Versions: 1 2 3 4 5 6 7 8 9 10 11 12 13 14 15 16 17 18 19 20 21 22 23 24 25 26 27 28 29 30 31 32 33 34 35 36 37 38 39 40 41 42 43 44 45 46 47 48 49 50
000
ASUS45 KABQ 120501
RWRNM
NEW MEXICO REGIONAL WEATHER ROUNDUP
NATIONAL WEATHER SERVICE ALBUQUERQUE NM
1000 PM MST MON DEC 11 2017

NOTE: "FAIR" MEANS FEW OR NO CLOUDS BELOW 12,000 FEET AGL WITH NO
       SIGNIFICANT WEATHER OR OBSTRUCTIONS TO VISION.

      THIS PRODUCT IS RELEASED AS TWO VERSIONS.  ONE VERSION NEAR
      THE TOP OF THE HOUR CONTAINING PRELIMINARY DATA FROM ALBUQUERQUE
      AND OTHER STATIONS.  A FINAL VERSION WITH ADDITIONAL DATA IS
      ISSUED ABOUT 10 MINUTES AFTER THE HOUR.

NMZ501-503-504-510>518-120600-
NORTHWEST PLATEAU/NORTHCENTRAL MOUNTAINS

CITY           SKY/WX    TMP DP  RH WIND       PRES   REMARKS
FARMINGTON     FAIR      22   0  38 CALM      30.45R
LOS ALAMOS     FAIR      46  -4  12 N5        30.48R
SANTA FE       FAIR      25   4  40 NW6       30.46R WCI  18
TAOS           FAIR      29   0  28 CALM      30.50R
ANGEL FIRE     FAIR      13   5  71 CALM      30.54S

$$
NMZ402-403-502-505>509-120600-
WESTCENTRAL MOUNTAINS/SOUTHWEST MOUNTAINS

CITY           SKY/WX    TMP DP  RH WIND       PRES   REMARKS
GALLUP         FAIR      13 -10  35 CALM      30.47R
GRANTS         FAIR      25  -7  23 NW14      30.49R WCI  14
SILVER CITY    FAIR      32   4  31 N8        30.38R WCI  25

$$
NMZ407-409-411-412-120600-
SOUTHERN DESERTS

CITY           SKY/WX    TMP DP  RH WIND       PRES   REMARKS
DEMING         FAIR      36   7  29 NE5       30.37R WCI  32
LAS CRUCES     FAIR      35   7  31 NW7       30.38R WCI  29
HOLLOMAN AFB   FAIR      32   6  32 CALM      30.39R
ALAMOGORDO     FAIR      36   9  32 N3        30.37R
T OR C         FAIR      36   2  23 CALM      30.38R

$$
NMZ519>523-120600-
CENTRAL VALLEYS/CENTRAL HIGHLANDS

CITY           SKY/WX    TMP DP  RH WIND       PRES   REMARKS
ALBUQUERQUE    FAIR      32   1  26 CALM      30.43R
DOUBLE EAGLE   CLEAR     21  -2  35 CALM      30.44R
MORIARTY ARPT  FAIR      19  -4  36 NW8       30.48R WCI   8
CLINES CORNERS FAIR      36   1  22 E13       30.50R WCI  27
BELEN          FAIR      28   1  31 N3        30.44R
SOCORRO        FAIR      34  -1  22 NW9       30.41R WCI  27

$$
NMZ524>526-539-540-120600-
SOUTHCENTRAL MOUNTAINS

CITY           SKY/WX    TMP DP  RH WIND       PRES   REMARKS
RUIDOSO        FAIR      41  -2  16 E3        30.47R

$$
NMZ527>531-120600-
NORTHEAST HIGHLANDS/NORTHEAST PLAINS

CITY           SKY/WX    TMP DP  RH WIND       PRES   REMARKS
LAS VEGAS      FAIR      34   2  25 N6        30.52R WCI  29
RATON          FAIR      30   3  31 NE6       30.48S WCI  24
CLAYTON        FAIR      35   8  32 NW9       30.46R WCI  28

$$
NMZ532>537-120600-
EASTCENTRAL PLAINS

CITY           SKY/WX    TMP DP  RH WIND       PRES   REMARKS
SANTA ROSA     FAIR      34   5  29 N8        30.47R WCI  27
TUCUMCARI      FAIR      36  11  35 NW5       30.43R WCI  32
CANNON AFB     FAIR      34  12  40 NE8       30.44R WCI  27
CLOVIS AIRPORT FAIR      29  14  53 N10       30.44R WCI  20

$$
NMZ028-029-538-120600-
SOUTHEAST PLAINS

CITY           SKY/WX    TMP DP  RH WIND       PRES   REMARKS
ROSWELL        FAIR      39  13  34 N8        30.39R WCI  33
ARTESIA        FAIR      36  10  35 NW10      30.38R WCI  28
CARLSBAD       FAIR      38  27  64 N7        30.34R WCI  33
HOBBS          FAIR      43   9  24 NE12      30.37R


$$




USA.gov is the U.S. government's official web portal to all federal, state and local government web resources and services.